TOPSWRTT 000
TTAA00 KICT 211612

Wichita AWIPS Roundup
National Weather Service Wichita KS
1100 AM CDT TUE OCT 21 2014

....Central Kansas....
  
CITY           SKY/WX    TMP DP  RH WIND       PRES   REMARKS
RUSSELL        PTSUNNY   65  56  72 SE8       30.08F                  
SALINA         MOSUNNY   64  55  72 CALM      30.11F                  
GREAT BEND     SUNNY     66  57  72 SE13      30.09F                  
ELLSWORTH      MOSUNNY   68  57  68 SE8       30.10S                  
MCPHERSON      SUNNY     70  55  60 SE12      30.11S                  
HAYS           PTSUNNY   61  52  72 SE7       30.10S                  

....South Central Kansas....
  
CITY           SKY/WX    TMP DP  RH WIND       PRES   REMARKS
HUTCHINSON     MOSUNNY   70  56  61 SE15      30.10F                  
NEWTON         SUNNY     66  54  63 SE9       30.14S                  
KINGMAN        MOSUNNY   70  63  78 SE7       30.09F                  
WICHITA (ICT)  MOSUNNY   71  55  56 SE12      30.11S                  
JABARA ARPT    SUNNY     70  55  59 SE12      30.11F                  
MCCONNELL AFB  SUNNY     70  56  61 SE12      30.11F                  
EL DORADO      FAIR      73  55  53 S9        30.12S                  
HARPER           N/A     66  61  82 E6        30.12S                  
WELLINGTON       N/A    N/A N/A N/A MISG        N/A                   
WINFIELD       MOSUNNY   68  59  73 SE10      30.12S                  
 
....Southeast Kansas....
  
CITY           SKY/WX    TMP DP  RH WIND       PRES   REMARKS
EUREKA         SUNNY     66  57  72 CALM      30.13S                  
CHANUTE        SUNNY     67  59  75 MISG      30.13S                  
PARSONS        MOSUNNY   67  62  84 VRB5      30.15R                  
COFFEYVILLE    SUNNY     63  60  90 CALM      30.13S                  
INDEPENDENCE   PTSUNNY   61  59  94 CALM      30.14S FOG              
FORT SCOTT     SUNNY     70  57  64 CALM      30.13S                  
PITTSBURG      MOSUNNY   61  61 100 CALM      30.13S FOG              

....Western Kansas....
  
CITY           SKY/WX    TMP DP  RH WIND       PRES   REMARKS
GOODLAND       CLOUDY    56  56 100 S17       30.07S FOG              
HILL CITY      NOT AVBL                                               
LIBERAL        SUNNY     61  55  82 SW6       30.11F                  
GARDEN CITY    FOG       54  54 100 S6        30.09S VSB<1/4          
DODGE CITY     FOG       59  58  96 S8        30.10S VSB 1/2          
PRATT          SUNNY     64  57  77 SE10      30.10S                  
MEDICINE LODGE   N/A     67  60  78 VRB6      30.08F                  

....Northeast Kansas....
  
CITY           SKY/WX    TMP DP  RH WIND       PRES   REMARKS
CONCORDIA      SUNNY     63  52  67 CALM      30.11S                  
TOPEKA         SUNNY     61  51  70 CALM      30.14S                  
MANHATTAN      SUNNY     62  50  64 CALM      30.12S                  
LAWRENCE       SUNNY     61  51  70 CALM      30.14S                  
OLATHE         SUNNY     67  47  48 CALM      30.13S                  
EMPORIA        SUNNY     65  53  65 S8        30.13S                  

....Oklahoma....
  
CITY           SKY/WX    TMP DP  RH WIND       PRES   REMARKS
GAGE           SUNNY     75  56  51 S12       30.10R                  
PONCA CITY     SUNNY     70  61  73 SE8       30.10S                  
BARTLESVILLE   PTSUNNY   64  60  87 CALM      30.14S                  
TULSA          MOSUNNY   69  62  78 SE7       30.11F                  
OKLAHOMA CITY  MOSUNNY   75  59  57 SW8       30.11R                  

Note: "fair" indicates few or no clouds below 12,000 feet with no
significant weather and/or obstructions to visibility.
  

USA.gov is the U.S. government's official web portal to all federal, state and local government web resources and services.